EHI
0 0 0 0 0 0 0 0 0 0 0 0 0 0 0 0 0 0 0 0 0 0 0 0 0 0 0 0 0 0 0 0 0 0 0 0 0 0 0 0 0 0 0
0 0 0 0 0 0 0 0 0 0 0 0 0 0 0 0 0 0 0 0 0 0 0 0 0 0 0 0 0 0 0 0 0 0 0 0 0 0 0 0 0 0 0
0 0 0 0 0 0 0 0 0 0 0 0 0 0 0 0 0 0 0 0 0 0 0 0 0 0 0 0 0 0 0 0 0 0 0 0 0 0 0 0 0 0 0
0 0 0 0 0 0 0 0 0 0 0 0 0 0 0 0 0 0 0 0 0 0 0 0 0 0 0 0 0 0 0 0 0 0 0 0 0 0 0 0 0 0 0
0 0 0 0 0 0 0 0 0 0 0 0 0 0 0 0 0 0 0 0 0 0 0 0 0 0 0 0 0 0 0 0 0 0 0 0 0 0 0 0 0 0 0
0 0 0 0 0 0 0 0 0 0 0 0 0 0 0 0 0 0 0 0 0 0 0 0 0 0 0 0 0 0 0 0 0 0 0 0 0 0 0 0 0 0 0
0 0 0 0 0 0 0 0 0 0 0 0 0 0 0 0 0 0 0 0 0 0 0 0 0 0 0 0 0 0 0 0 0 0 0 0 0 0 0 0 0 0 0
0 0 0 0 0 0 0 0 0 0 0 0 0 0 0 0 0 0 0 0 0 0 0 0 0 0 0 0 0 0 0 0 0 0 0 0 0 0 0 0 0 0 0
0 0 0 0 0 0 0 0 0 0 0 0 0 0 0 0 0 0 0 0 0 0 0 0 0 0 0 0 0 0 0 0 0 0 0 0 0 0 0 0 0 0 0
0 0 0 0 0 0 0 0 0 0 0 0 0 0 0 0 0 0 0 0 0 0 0 0 0 0 0 0 0 0 0 0 0 0 0 0 0 0 0 0 0 0 0
0 0 0 0 0 0 0 0 0 0 0 0 0 0 0 0 0 0 0 0 0 0 0 0 0 0 0 0 0 0 0 0 0 0 0 0 0 0 0 0 0 0 0
0 0 0 0 0 0 0 0 0 0 0 0 0 0 0 0 0 0 0 0 0 0 0 0 0 0 0 0 0 0 0 0 0 0 0 0 0 0 0 0 0 0 0
0 0 0 0 0 0 0 0 0 0 0 0 0 0 0 0 0 0 0 0 0 0 0 0 0 0 0 0 0 0 0 0 0 0 0 0 0 0 0 0 0 0 0
0 0 0 0 0 0 0 0 0 0 0 0 0 0 0 0 0 0 0 0 0 0 0 0 0 0 0 0 0 0 0 0 0 0 0 0 0 0 0 0 0 0 0
0 0 0 0 0 0 0 0 0 0 0 0 0 0 0 0 0 0 0 0 0 0 0 0 0 0 0 0 0 0 0 0 0 0 0 0 0 0 0 0 0 0 0
0 0 0 0 0 0 0 0 0 0 0 0 0 0 0 0 0 0 0 0 0 0 0 0 0 0 0 0 0 0 0 0 0 0 0 0 0 0 0 0 0 0 0
0 0 0 0 0 0 0 0 0 0 0 0 0 0 0 0 0 0 0 0 0 0 0 0 0 0 0 0 0 0 0 0 0 0 0 0 0 0 0 0 0 0 0
0 0 0 0 0 0 0 0 0 0 0 0 0 0 0 0 0 0 0 0 0 0 0 0 0 0 0 0 0 0 0 0 0 0 0 0 0 0 0 0 0 0 0
0 0 0 0 0 0 0 0 0 0 0 0 0 0 0 0 0 0 0 0 0 0 0 0 0 0 0 0 0 0 0 0 0 0 0 0 0 0 0 0 0 0 0
0 0 0 0 0 0 0 0 0 0 0 0 0 0 0 0 0 0 0 0 0 0 0 0 0 0 0 0 0 0 0 0 0 0 0 0 0 0 0 0 0 0 0
0 0 0 0 0 0 0 0 0 0 0 0 0 0 0 0 0 0 0 0 0 0 0 0 0 0 0 0 0 0 0 0 0 0 0 0 0 0 0 0 0 0 0
0 0 0 0 0 0 0 0 0 0 0 0 0 0 0 0 0 0 0 0 0 0 0 0 0 0 0 0 0 0 0 0 0 0 0 0 0 0 0 0 0 0 0
0 0 0 0 0 0 0 0 0 0 0 0 0 0 0 0 0 0 0 0 0 0 0 0 0 0 0 0 0 0 0 0 0 0 0 0 0 0 0 0 0 0 0
0 0 0 0 0 0 0 0 0 0 0 0 0 0 0 0 0 0 0 0 0 0 0 0 0 0 0 0 0 0 0 0 0 0 0 0 0 0 0 0 0 0 0
0 0 0 0 0 0 0 0 0 0 0 0 0 0 0 0 0 0 0 0 0 0 0 0 0 0 0 0 0 0 0 0 0 0 0 0 0 0 0 0 0 0 0
0 0 0 0 0 0 0 0 0 0 0 0 0 0 0 0 0 0 0 0 0 0 0 0 0 0 0 0 0 0 0 0 0 0 0 0 0 0 0 0 0 0 0
Wind_Speed
5 4 4 3 2 2 1 2 2 2 3 4 5 5 6 6 6 5 6 7 7 7 7 7 8 8 6 5 5 6 6 7 15 14 6 6 8 10 11 10 10 10 12
5 5 4 3 2 1 2 2 3 3 4 4 5 6 6 7 7 7 8 8 8 8 9 8 9 8 8 7 6 7 8 8 11 18 12 7 8 9 10 11 11 11 9
5 5 3 2 2 2 3 3 4 4 5 5 5 6 7 7 8 8 8 8 8 9 9 9 10 9 10 8 8 8 8 10 9 13 15 9 7 8 9 10 11 10 11
5 4 4 3 3 4 4 4 5 5 5 6 6 7 8 8 8 8 8 8 9 9 9 9 10 10 10 10 9 10 10 10 10 12 13 11 8 7 7 7 8 6 8
5 4 4 4 4 4 4 5 5 6 6 7 7 8 8 7 7 8 8 8 8 9 9 9 10 13 17 15 12 9 9 9 9 11 12 11 9 6 7 6 10 8 8
5 4 4 3 4 4 5 6 6 7 7 7 8 8 9 8 15 20 16 8 7 8 8 8 10 13 16 22 25 25 21 14 11 11 12 12 12 10 8 8 9 10 9
4 3 3 4 4 5 6 6 7 7 7 8 8 8 9 12 20 21 22 13 8 7 8 8 9 10 17 10 17 23 21 25 25 17 15 15 14 11 11 12 12 12 12
3 3 4 4 5 6 6 7 7 7 7 7 8 9 9 12 20 22 23 12 8 8 8 9 10 10 11 14 12 12 12 13 17 14 12 14 14 14 13 14 14 12 11
3 4 4 5 5 6 6 7 7 6 7 8 8 9 9 12 19 22 23 8 7 9 9 9 11 11 18 25 17 13 13 12 17 23 24 22 25 26 20 10 8 9 10
4 5 5 5 5 6 7 7 6 6 8 8 8 8 9 10 17 21 22 7 8 8 8 9 16 18 23 26 15 12 15 13 11 12 14 16 15 15 20 11 8 9 9
4 4 5 5 6 6 6 6 6 7 7 7 9 8 8 11 16 20 22 10 8 8 7 6 8 22 26 27 23 13 17 18 10 9 9 9 8 7 7 7 7 7 9
4 5 5 6 6 5 6 7 7 7 8 8 9 9 7 8 13 16 22 21 20 11 9 7 10 23 26 26 19 19 25 20 7 7 8 7 6 6 6 6 7 7 8
4 5 6 6 6 6 6 7 7 6 6 7 7 9 8 6 9 19 22 23 24 14 10 19 23 26 23 15 18 23 18 8 7 8 7 7 6 6 6 5 5 6 7
5 6 6 6 6 6 5 5 6 6 7 8 8 9 9 7 6 6 8 10 15 13 11 15 21 20 16 16 15 11 7 7 8 7 7 6 5 5 5 5 5 4 5
5 6 6 6 6 6 6 6 7 7 8 11 8 8 9 10 11 21 17 10 9 10 13 8 5 6 6 6 6 7 6 6 6 6 6 6 6 5 5 4 4 4 4
5 6 5 5 5 6 7 8 12 14 19 21 20 19 14 19 25 26 26 26 26 24 16 7 7 7 8 8 8 7 6 6 6 6 6 5 6 6 5 4 4 4 4
6 6 5 5 6 6 7 8 10 12 16 19 20 22 21 24 25 25 25 25 24 21 9 7 8 8 8 8 8 8 7 6 5 6 6 5 6 5 5 5 5 4 4
7 8 8 6 6 6 7 8 8 10 11 9 11 19 22 23 24 24 24 20 11 9 6 7 8 8 8 8 8 8 7 6 6 6 6 6 5 5 5 5 4 5 4
6 5 6 6 6 7 7 8 8 10 10 11 9 10 17 20 22 21 19 8 8 8 8 8 8 8 8 8 8 7 7 7 7 6 6 6 5 5 5 5 5 8 6
6 12 11 7 6 6 7 8 9 9 10 10 10 9 8 10 8 8 7 6 7 8 8 9 8 8 8 8 8 7 7 7 7 6 5 5 5 5 5 6 5 5 4
6 8 14 10 6 7 8 9 9 9 10 10 9 11 19 11 8 8 8 7 7 8 9 9 8 8 8 8 7 8 8 7 6 6 5 5 5 5 5 5 5 5 4
6 6 6 7 7 7 9 8 8 9 10 12 10 11 18 10 7 8 8 8 7 7 8 9 8 8 8 8 8 8 8 7 6 6 6 6 5 5 5 5 5 4 4
6 8 8 8 8 12 12 8 8 9 10 10 10 9 9 8 8 8 9 8 7 8 8 8 9 9 7 7 7 8 8 8 6 6 7 7 6 6 5 6 6 6 6
7 8 8 9 8 8 9 9 9 10 10 10 9 9 8 8 8 10 9 8 8 9 8 8 9 11 13 11 8 7 7 8 8 7 9 9 8 7 6 7 7 7 7
6 7 8 8 8 9 9 10 10 10 10 10 10 9 9 9 9 10 9 9 10 10 10 10 9 10 12 13 12 10 15 19 17 11 8 8 9 9 9 9 8 7 7
7 7 8 7 8 8 9 10 10 10 9 10 9 8 9 9 9 9 9 9 9 9 10 9 10 12 14 12 13 17 20 20 19 18 11 7 8 8 8 8 9 9 9
Wind_Direction
163 158 152 163 167 164 201 258 272 280 291 294 294 295 294 293 290 286 281 281 278 277 277 273 270 267 262 258 253 252 254 260 282 292 278 269 263 267 276 274 274 275 277
165 159 164 170 172 198 253 268 271 278 282 282 287 289 289 289 288 285 284 284 280 279 278 276 274 274 266 263 259 258 261 260 273 288 291 280 268 266 269 269 277 277 271
162 161 169 186 207 237 256 267 272 274 281 284 284 283 284 284 284 281 278 277 274 273 273 271 273 272 272 269 263 264 266 270 268 278 286 284 275 269 272 273 272 272 273
163 168 186 212 226 241 254 263 268 271 276 279 278 277 277 279 279 279 277 274 271 269 267 265 265 264 267 271 271 266 267 270 271 275 282 285 280 266 264 272 278 264 266
166 182 209 226 237 249 260 266 270 272 271 273 277 279 278 279 274 274 271 265 265 267 266 263 262 270 275 282 284 277 272 273 278 281 284 286 283 277 270 267 277 276 266
173 200 222 237 250 258 264 268 272 274 274 274 274 275 278 281 294 302 302 286 274 271 272 269 269 278 285 291 294 295 292 286 284 281 283 282 283 278 274 273 277 281 280
183 211 230 243 256 263 268 272 273 273 273 275 274 274 273 278 294 303 304 302 285 275 273 274 280 280 293 283 286 289 288 286 285 283 280 280 280 277 276 276 272 271 271
195 227 243 249 260 269 273 273 272 271 271 273 275 275 276 282 298 306 308 303 282 272 269 270 274 276 275 284 277 273 269 272 275 276 267 267 269 270 263 265 270 272 269
217 240 250 252 261 271 274 274 274 275 276 274 274 276 277 285 299 306 308 293 280 274 269 269 276 276 283 294 294 285 283 278 282 283 282 282 282 285 284 280 274 277 278
235 247 254 255 259 266 270 274 274 274 276 280 281 277 276 279 294 304 307 291 283 280 273 268 281 288 293 296 293 286 287 286 281 283 283 284 284 282 285 278 272 276 279
246 258 264 264 264 267 271 272 278 281 284 284 285 281 275 280 295 302 305 300 284 284 282 276 272 292 296 297 298 291 289 293 286 284 283 279 274 268 265 259 252 259 269
259 266 270 272 274 277 276 280 281 283 288 289 290 290 279 279 291 298 303 305 304 297 289 282 281 294 298 302 303 298 300 304 297 289 284 280 277 274 269 264 258 252 253
269 272 275 278 275 274 276 283 288 285 285 290 290 292 291 277 282 298 304 305 304 300 288 294 299 303 306 306 299 300 303 299 290 285 283 280 273 273 275 273 267 263 262
270 275 277 279 281 280 276 274 279 282 283 287 289 291 293 289 279 278 278 290 298 297 293 293 299 301 301 298 299 298 287 275 283 283 285 283 282 279 277 276 278 276 274
275 276 279 275 277 283 278 270 278 266 272 288 287 285 294 297 294 304 308 303 297 291 302 295 290 292 288 285 283 279 274 278 286 281 282 284 286 284 281 278 272 272 267
278 279 276 277 279 281 287 292 286 286 294 296 296 296 295 296 303 308 310 310 311 310 312 303 298 294 292 290 289 288 281 278 279 280 282 282 286 286 285 280 267 264 268
269 275 275 274 279 283 285 290 297 299 294 295 297 299 299 302 305 309 310 310 311 315 309 294 291 290 288 286 284 283 282 279 276 278 277 276 278 279 278 279 274 267 266
269 276 280 271 273 277 279 280 284 293 300 295 293 297 300 302 306 308 309 312 308 307 284 285 286 286 285 283 284 282 279 279 277 275 273 272 271 274 275 273 272 264 262
273 272 272 269 269 272 277 280 282 285 288 293 293 293 298 303 304 304 308 299 293 293 290 287 283 283 283 282 281 280 277 278 276 274 271 269 267 267 269 268 268 275 273
271 282 291 284 277 280 280 282 285 286 287 289 290 293 297 297 293 295 294 283 284 287 288 287 285 282 282 281 279 277 276 273 273 270 267 266 265 263 264 266 263 261 255
271 280 290 291 279 280 281 281 282 284 287 289 288 292 299 302 298 296 292 287 283 285 287 287 285 284 282 278 275 274 271 271 269 266 264 262 259 261 260 259 261 255 249
271 272 272 274 278 279 282 280 284 287 289 290 291 295 303 300 290 289 288 287 281 281 282 284 284 281 278 277 276 275 273 270 266 263 262 261 257 257 256 256 257 253 246
271 277 280 279 279 287 293 287 287 287 287 289 291 294 294 290 289 289 289 289 287 286 283 282 284 283 278 275 273 272 273 272 267 263 263 264 259 256 253 252 253 252 247
272 278 283 287 288 287 289 289 288 288 289 289 291 291 291 291 290 291 291 291 288 287 285 283 283 283 282 282 279 272 268 268 265 259 254 254 255 254 250 248 248 246 245
277 281 286 288 289 289 290 290 289 289 289 292 293 293 292 292 292 293 292 289 288 288 287 286 284 284 283 282 282 279 280 283 281 273 256 250 249 247 247 247 246 245 241
282 284 286 286 285 285 286 288 289 289 289 291 291 289 289 290 290 290 290 289 289 290 290 288 283 282 283 284 282 284 287 287 284 281 272 256 251 251 247 246 243 243 242